Weather History for Alpena, MI

Change the Weather History Date:

Thursday, November 3, 2011

  Actual Average Record
Temperature  
Mean Temperature 39 °F 40 °F  
Max Temperature 48 °F 48 °F 74 °F (1978)
Min Temperature 29 °F 32 °F 13 °F (1951)
Degree Days  
Heating Degree Days 26 25  
Month to date heating degree days 63 74  
Since 1 July heating degree days 852 1018  
Moisture  
Dew Point 36 °F    
Average Humidity 77    
Maximum Humidity 100    
Minimum Humidity 54    
Precipitation  
Precipitation T in 0.07 in 1.50 in (1955)
Month to date precipitation 0.27 0.22  
Year to date precipitation 33.60 24.53  
Snow  
Snow 0.00 in 0.10 in 14.00 in (1955)
Month to date snowfall 0.0 0.3  
Since 1 July snowfall 0.0 0.7  
Snow Depth 0.00 in    
Sea Level Pressure  
Sea Level Pressure 30.13 in    
Wind  
Wind Speed 5 mph (NNW)    
Max Wind Speed 16 mph    
Max Gust Speed 21 mph    
Visibility 10 miles    
Events Rain    
T = Trace of Precipitation, MM = Missing Value Source: NWS Daily Summary

Daily Weather History Graph

Daily Weather History Graph

Search for Another Location

Airport:

Trip Planner

Search our weather history database for the weather conditions in past years. The results will help you decide how hot, cold, wet, or windy it might be!

Date:

Astronomy

Nov. 03, 2011 Rise Set
Actual Time 8:15 AM EDT 6:19 PM EDT
Civil Twilight 7:44 AM EDT 6:50 PM EDT
Nautical Twilight 7:09 AM EDT 7:25 PM EDT
Astronomical Twilight 6:35 AM EDT 7:59 PM EDT
Moon 2:59 PM EDT (11/3) 1:08 AM EDT (11/3)
Length of Visible Light 11h 06m
Length of Day
10h 04m
First Quarter, 60% of the Moon is Illuminated
Nov 3
First Quarter
Nov 10
Full
Nov 18
Last Quarter
Nov 25
New
Dec 2
First Quarter

Hourly Weather History & Observations

Time (EDT) Temp. Windchill Dew Point Humidity Pressure Visibility Wind Dir Wind Speed Gust Speed Precip Events Conditions
12:20 AM 42.8 °F 36.2 °F 39.2 °F 87% 30.07 in 10.0 mi NNW 12.7 mph 21.9 mph 0.01 in Rain Light Rain
12:30 AM 42.8 °F 36.6 °F 41.0 °F 93% 30.06 in 10.0 mi NNW 11.5 mph - 0.02 in Rain Light Rain
12:40 AM 42.8 °F 37.0 °F 39.2 °F 87% 30.05 in 10.0 mi North 10.4 mph - 0.02 in Rain Light Rain
12:51 AM 42.8 °F 35.4 °F 39.2 °F 87% 30.05 in 10.0 mi North 15.0 mph - 0.02 in Rain Light Rain
12:54 AM 42.1 °F 35.7 °F 39.9 °F 92% 30.07 in 10.0 mi North 11.5 mph - 0.02 in Rain Light Rain
1:23 AM 42.8 °F 36.2 °F 39.2 °F 87% 30.05 in 10.0 mi North 12.7 mph - 0.00 in   Overcast
1:54 AM 42.1 °F 36.6 °F 39.9 °F 92% 30.08 in 10.0 mi NNW 9.2 mph - 0.00 in   Overcast
2:37 AM 42.8 °F 39.3 °F 39.2 °F 87% 30.06 in 10.0 mi NNW 5.8 mph - 0.00 in   Overcast
2:54 AM 42.1 °F 39.2 °F 39.9 °F 92% 30.07 in 10.0 mi North 4.6 mph - 0.00 in   Overcast
3:54 AM 42.1 °F - 39.9 °F 92% 30.09 in 10.0 mi Calm Calm - N/A   Overcast
4:23 AM 41.0 °F - 39.2 °F 93% 30.08 in 10.0 mi Calm Calm - N/A   Overcast
4:45 AM 41.0 °F 39.0 °F 39.2 °F 93% 30.08 in 10.0 mi WNW 3.5 mph - N/A   Overcast
4:54 AM 41.0 °F - 39.9 °F 96% 30.09 in 10.0 mi Calm Calm - N/A   Overcast
5:15 AM 41.0 °F 39.0 °F 39.2 °F 93% 30.08 in 10.0 mi WNW 3.5 mph - N/A   Overcast
5:54 AM 39.9 °F 37.8 °F 39.0 °F 97% 30.11 in 10.0 mi WNW 3.5 mph - N/A   Overcast
6:19 AM 41.0 °F 39.0 °F 39.2 °F 93% 30.10 in 10.0 mi West 3.5 mph - N/A   Overcast
6:54 AM 39.9 °F 36.7 °F 39.0 °F 97% 30.12 in 10.0 mi NW 4.6 mph - N/A   Mostly Cloudy
7:54 AM 39.9 °F 35.8 °F 39.0 °F 97% 30.13 in 10.0 mi NW 5.8 mph - N/A   Clear
8:54 AM 41.0 °F 38.0 °F 37.9 °F 89% 30.16 in 10.0 mi NNW 4.6 mph - N/A   Scattered Clouds
9:35 AM 41.0 °F 38.0 °F 37.4 °F 87% 30.16 in 10.0 mi NNW 4.6 mph - N/A   Mostly Cloudy
9:54 AM 41.0 °F 37.1 °F 39.0 °F 93% 30.17 in 10.0 mi NNW 5.8 mph - N/A   Mostly Cloudy
10:54 AM 43.0 °F 39.5 °F 39.9 °F 89% 30.18 in 10.0 mi NNW 5.8 mph - N/A   Overcast
11:54 AM 44.1 °F 39.5 °F 39.0 °F 82% 30.17 in 10.0 mi North 8.1 mph - N/A   Mostly Cloudy
12:10 PM 44.6 °F 39.7 °F 37.4 °F 76% 30.16 in 10.0 mi North 9.2 mph - N/A   Scattered Clouds
12:54 PM 45.0 °F 40.1 °F 36.0 °F 71% 30.17 in 10.0 mi North 9.2 mph - N/A   Scattered Clouds
1:54 PM 46.0 °F 42.5 °F 35.1 °F 66% 30.15 in 10.0 mi NNE 6.9 mph - N/A   Scattered Clouds
2:54 PM 48.0 °F - 32.0 °F 54% 30.15 in 10.0 mi North 8.1 mph - N/A   Partly Cloudy
3:54 PM 46.0 °F 41.4 °F 33.1 °F 61% 30.14 in 10.0 mi North 9.2 mph - N/A   Partly Cloudy
4:54 PM 45.0 °F 39.3 °F 30.0 °F 56% 30.16 in 10.0 mi North 11.5 mph - N/A   Clear
5:54 PM 42.1 °F 36.1 °F 28.9 °F 60% 30.18 in 10.0 mi North 10.4 mph - N/A   Clear
6:54 PM 39.0 °F 34.0 °F 30.9 °F 73% 30.18 in 10.0 mi NNW 6.9 mph - N/A   Clear
7:54 PM 37.0 °F 33.3 °F 30.0 °F 76% 30.19 in 10.0 mi NW 4.6 mph - N/A   Clear
8:54 PM 34.0 °F - 28.9 °F 82% 30.21 in 10.0 mi Calm Calm - N/A   Clear
9:54 PM 33.1 °F 30.0 °F 28.9 °F 85% 30.22 in 10.0 mi West 3.5 mph - N/A   Clear
10:54 PM 30.9 °F - 28.0 °F 89% 30.24 in 10.0 mi Calm Calm - N/A   Clear
11:54 PM 30.0 °F 26.5 °F 28.0 °F 92% 30.24 in 10.0 mi West 3.5 mph - N/A   Clear